iso_date,epoch_date,Year,Hour,Min,DOY,POS_DOY,Lat,Lon,BP,Ts,Ta,has_bp,has_ts,has_ta,BuoyID,Buoy_Type,Buoy_Owner,Logistics,Hemisphere
2013-08-30T00:59:02Z,1377824342,2013,0,59,242.041,-999.0,71.1944,-136.9074,1007.7,1.44,-999.0,yes,yes,no,300234011244960,UPTEMPO,PSC-UPTEMPO,Healy,South
2013-08-30T01:03:21Z,1377824602,2013,1,4,242.044,-999.0,71.1944,-136.9062,1008.4,1.36,-999.0,yes,yes,no,300234011244960,UPTEMPO,PSC-UPTEMPO,Healy,South
2013-08-30T01:09:07Z,1377824947,2013,1,9,242.048,-999.0,71.1942,-136.9052,1008.5,0.92,-999.0,yes,yes,no,300234011244960,UPTEMPO,PSC-UPTEMPO,Healy,South
2013-08-30T01:13:26Z,1377825206,2013,1,14,242.051,-999.0,71.1942,-136.904,1008.7,1.16,-999.0,yes,yes,no,300234011244960,UPTEMPO,PSC-UPTEMPO,Healy,South
2013-08-30T01:19:12Z,1377825552,2013,1,19,242.055,-999.0,71.194,-136.903,1008.7,1.2,-999.0,yes,yes,no,300234011244960,UPTEMPO,PSC-UPTEMPO,Healy,South
2013-08-30T01:23:31Z,1377825811,2013,1,24,242.058,-999.0,71.194,-136.902,1008.7,1.22,-999.0,yes,yes,no,300234011244960,UPTEMPO,PSC-UPTEMPO,Healy,South
2013-08-30T01:29:16Z,1377826157,2013,1,29,242.062,-999.0,71.1938,-136.9,1008.6,0.8,-999.0,yes,yes,no,300234011244960,UPTEMPO,PSC-UPTEMPO,Healy,South
2013-08-30T01:33:36Z,1377826416,2013,1,34,242.065,-999.0,71.1938,-136.8974,1008.7,0.84,-999.0,yes,yes,no,300234011244960,UPTEMPO,PSC-UPTEMPO,Healy,South
2013-08-30T01:39:21Z,1377826762,2013,1,39,242.069,-999.0,71.1936,-136.8946,1008.7,0.72,-999.0,yes,yes,no,300234011244960,UPTEMPO,PSC-UPTEMPO,Healy,South
2013-08-30T01:43:40Z,1377827021,2013,1,44,242.072,-999.0,71.1934,-136.892,1008.9,0.84,-999.0,yes,yes,no,300234011244960,UPTEMPO,PSC-UPTEMPO,Healy,South
2013-08-30T01:49:26Z,1377827366,2013,1,50,242.076,-999.0,71.193,-136.8886,1008.9,0.76,-999.0,yes,yes,no,300234011244960,UPTEMPO,PSC-UPTEMPO,Healy,South
2013-08-30T01:59:31Z,1377827971,2013,2,0,242.083,-999.0,71.1926,-136.8836,1009.0,0.68,-999.0,yes,yes,no,300234011244960,UPTEMPO,PSC-UPTEMPO,Healy,South
2013-08-30T03:00:00Z,1377831600,2013,3,0,242.125,-999.0,71.1866,-136.8548,1009.5,0.92,-999.0,yes,yes,no,300234011244960,UPTEMPO,PSC-UPTEMPO,Healy,South
2013-08-30T04:00:28Z,1377835229,2013,4,0,242.167,-999.0,71.1774,-136.8378,1010.0,0.92,-999.0,yes,yes,no,300234011244960,UPTEMPO,PSC-UPTEMPO,Healy,South
2013-08-30T06:00:00Z,1377842400,2013,6,0,242.25,-999.0,71.1642,-136.8292,1010.5,1.2,-999.0,yes,yes,no,300234011244960,UPTEMPO,PSC-UPTEMPO,Healy,South
2013-08-30T07:00:28Z,1377846029,2013,7,0,242.292,-999.0,71.1624,-136.8268,1010.6,1.24,-999.0,yes,yes,no,300234011244960,UPTEMPO,PSC-UPTEMPO,Healy,South
2013-08-30T07:59:31Z,1377849571,2013,8,0,242.333,-999.0,71.1618,-136.8254,1011.0,1.2,-999.0,yes,yes,no,300234011244960,UPTEMPO,PSC-UPTEMPO,Healy,South
2013-08-30T09:00:00Z,1377853200,2013,9,0,242.375,-999.0,71.1622,-136.8248,1011.2,1.04,-999.0,yes,yes,no,300234011244960,UPTEMPO,PSC-UPTEMPO,Healy,South
2013-08-30T10:00:28Z,1377856829,2013,10,0,242.417,-999.0,71.1668,-136.8298,1011.2,0.48,-999.0,yes,yes,no,300234011244960,UPTEMPO,PSC-UPTEMPO,Healy,South
2013-08-30T10:59:31Z,1377860371,2013,11,0,242.458,-999.0,71.1718,-136.8254,1011.3,0.88,-999.0,yes,yes,no,300234011244960,UPTEMPO,PSC-UPTEMPO,Healy,South
2013-08-30T12:00:00Z,1377864000,2013,12,0,242.5,-999.0,71.1718,-136.816,1011.3,0.92,-999.0,yes,yes,no,300234011244960,UPTEMPO,PSC-UPTEMPO,Healy,South
2013-08-30T13:00:28Z,1377867629,2013,13,0,242.542,-999.0,71.1708,-136.8056,1011.2,1.0,-999.0,yes,yes,no,300234011244960,UPTEMPO,PSC-UPTEMPO,Healy,South
2013-08-30T13:59:31Z,1377871171,2013,14,0,242.583,-999.0,71.1708,-136.8056,1011.2,1.24,-999.0,yes,yes,no,300234011244960,UPTEMPO,PSC-UPTEMPO,Healy,South
2013-08-30T15:00:00Z,1377874800,2013,15,0,242.625,-999.0,71.1708,-136.8056,1010.9,1.32,-999.0,yes,yes,no,300234011244960,UPTEMPO,PSC-UPTEMPO,Healy,South
2013-08-30T16:00:28Z,1377878429,2013,16,0,242.667,-999.0,71.1708,-136.8056,1010.5,1.34,-999.0,yes,yes,no,300234011244960,UPTEMPO,PSC-UPTEMPO,Healy,South
2013-08-30T16:59:31Z,1377881971,2013,17,0,242.708,-999.0,71.1708,-136.8056,1011.0,1.34,-999.0,yes,yes,no,300234011244960,UPTEMPO,PSC-UPTEMPO,Healy,South
2013-08-30T18:00:00Z,1377885600,2013,18,0,242.75,-999.0,71.1646,-136.7708,1010.2,0.68,-999.0,yes,yes,no,300234011244960,UPTEMPO,PSC-UPTEMPO,Healy,South
2013-08-30T19:00:28Z,1377889229,2013,19,0,242.792,-999.0,71.1642,-136.7668,1009.9,0.72,-999.0,yes,yes,no,300234011244960,UPTEMPO,PSC-UPTEMPO,Healy,South
2013-08-30T19:59:31Z,1377892771,2013,20,0,242.833,-999.0,71.164,-136.7624,1010.0,1.24,-999.0,yes,yes,no,300234011244960,UPTEMPO,PSC-UPTEMPO,Healy,South
2013-08-30T21:00:00Z,1377896400,2013,21,0,242.875,-999.0,71.1638,-136.7584,1009.9,1.02,-999.0,yes,yes,no,300234011244960,UPTEMPO,PSC-UPTEMPO,Healy,South
2013-08-30T22:00:28Z,1377900029,2013,22,0,242.917,-999.0,71.1654,-136.7532,1009.7,1.2,-999.0,yes,yes,no,300234011244960,UPTEMPO,PSC-UPTEMPO,Healy,South
2013-08-30T22:59:31Z,1377903571,2013,23,0,242.958,-999.0,71.1654,-136.7532,1009.7,1.46,-999.0,yes,yes,no,300234011244960,UPTEMPO,PSC-UPTEMPO,Healy,South
2013-08-31T00:00:00Z,1377907200,2013,0,0,243.0,-999.0,71.1654,-136.7532,1009.5,1.32,-999.0,yes,yes,no,300234011244960,UPTEMPO,PSC-UPTEMPO,Healy,South
2013-08-31T01:00:28Z,1377910829,2013,1,0,243.042,-999.0,71.1654,-136.7532,1009.0,1.24,-999.0,yes,yes,no,300234011244960,UPTEMPO,PSC-UPTEMPO,Healy,South
2013-08-31T01:59:31Z,1377914371,2013,2,0,243.083,-999.0,71.1654,-136.7532,1009.1,1.24,-999.0,yes,yes,no,300234011244960,UPTEMPO,PSC-UPTEMPO,Healy,South
2013-08-31T03:00:00Z,1377918000,2013,3,0,243.125,-999.0,71.1654,-136.7532,1008.7,1.2,-999.0,yes,yes,no,300234011244960,UPTEMPO,PSC-UPTEMPO,Healy,South
2013-08-31T04:00:28Z,1377921629,2013,4,0,243.167,-999.0,71.1654,-136.7532,1008.6,0.28,-999.0,yes,yes,no,300234011244960,UPTEMPO,PSC-UPTEMPO,Healy,South
2013-08-31T04:59:31Z,1377925171,2013,5,0,243.208,-999.0,71.1654,-136.7532,1008.7,-0.16,-999.0,yes,yes,no,300234011244960,UPTEMPO,PSC-UPTEMPO,Healy,South
2013-08-31T06:00:00Z,1377928800,2013,6,0,243.25,-999.0,71.1654,-136.7532,1008.3,0.24,-999.0,yes,yes,no,300234011244960,UPTEMPO,PSC-UPTEMPO,Healy,South
2013-08-31T07:00:28Z,1377932429,2013,7,0,243.292,-999.0,71.1654,-136.7532,1008.3,1.4,-999.0,yes,yes,no,300234011244960,UPTEMPO,PSC-UPTEMPO,Healy,South
2013-08-31T07:59:31Z,1377935971,2013,8,0,243.333,-999.0,71.1654,-136.7532,1008.1,1.44,-999.0,yes,yes,no,300234011244960,UPTEMPO,PSC-UPTEMPO,Healy,South
2013-08-31T09:00:00Z,1377939600,2013,9,0,243.375,-999.0,71.1654,-136.7532,1008.2,1.4,-999.0,yes,yes,no,300234011244960,UPTEMPO,PSC-UPTEMPO,Healy,South
2013-08-31T10:00:28Z,1377943229,2013,10,0,243.417,-999.0,71.1654,-136.7532,1008.0,1.34,-999.0,yes,yes,no,300234011244960,UPTEMPO,PSC-UPTEMPO,Healy,South
2013-08-31T10:59:31Z,1377946771,2013,11,0,243.458,-999.0,71.1654,-136.7532,1007.9,1.34,-999.0,yes,yes,no,300234011244960,UPTEMPO,PSC-UPTEMPO,Healy,South
2013-08-31T12:00:00Z,1377950400,2013,12,0,243.5,-999.0,71.1654,-136.7532,1007.7,1.28,-999.0,yes,yes,no,300234011244960,UPTEMPO,PSC-UPTEMPO,Healy,South
2013-08-31T13:00:28Z,1377954029,2013,13,0,243.542,-999.0,71.1654,-136.7532,1007.5,1.32,-999.0,yes,yes,no,300234011244960,UPTEMPO,PSC-UPTEMPO,Healy,South
2013-08-31T13:59:31Z,1377957571,2013,14,0,243.583,-999.0,71.1654,-136.7532,1007.4,1.12,-999.0,yes,yes,no,300234011244960,UPTEMPO,PSC-UPTEMPO,Healy,South
2013-08-31T15:00:00Z,1377961200,2013,15,0,243.625,-999.0,71.1654,-136.7532,1007.2,1.24,-999.0,yes,yes,no,300234011244960,UPTEMPO,PSC-UPTEMPO,Healy,South
2013-08-31T16:00:28Z,1377964829,2013,16,0,243.667,-999.0,71.1654,-136.7532,1007.0,1.22,-999.0,yes,yes,no,300234011244960,UPTEMPO,PSC-UPTEMPO,Healy,South
2013-08-31T16:59:31Z,1377968371,2013,17,0,243.708,-999.0,71.1654,-136.7532,1006.7,0.88,-999.0,yes,yes,no,300234011244960,UPTEMPO,PSC-UPTEMPO,Healy,South
2013-08-31T18:00:00Z,1377972000,2013,18,0,243.75,-999.0,71.1654,-136.7532,1006.3,1.0,-999.0,yes,yes,no,300234011244960,UPTEMPO,PSC-UPTEMPO,Healy,South
2013-08-31T19:00:28Z,1377975629,2013,19,0,243.792,-999.0,71.1654,-136.7532,1006.2,1.12,-999.0,yes,yes,no,300234011244960,UPTEMPO,PSC-UPTEMPO,Healy,South
2013-08-31T19:59:31Z,1377979171,2013,20,0,243.833,-999.0,71.1654,-136.7532,1006.2,1.22,-999.0,yes,yes,no,300234011244960,UPTEMPO,PSC-UPTEMPO,Healy,South
2013-08-31T21:00:00Z,1377982800,2013,21,0,243.875,-999.0,71.1654,-136.7532,1005.9,1.2,-999.0,yes,yes,no,300234011244960,UPTEMPO,PSC-UPTEMPO,Healy,South
2013-08-31T22:00:28Z,1377986429,2013,22,0,243.917,-999.0,71.1654,-136.7532,1005.5,1.2,-999.0,yes,yes,no,300234011244960,UPTEMPO,PSC-UPTEMPO,Healy,South
2013-08-31T22:59:31Z,1377989971,2013,23,0,243.958,-999.0,71.1654,-136.7532,1004.7,1.2,-999.0,yes,yes,no,300234011244960,UPTEMPO,PSC-UPTEMPO,Healy,South
2013-09-01T00:00:00Z,1377993600,2013,0,0,244.0,-999.0,71.1654,-136.7532,1003.9,1.2,-999.0,yes,yes,no,300234011244960,UPTEMPO,PSC-UPTEMPO,Healy,South
2013-09-01T01:00:28Z,1377997229,2013,1,0,244.042,-999.0,71.1654,-136.7532,1003.2,1.12,-999.0,yes,yes,no,300234011244960,UPTEMPO,PSC-UPTEMPO,Healy,South
2013-09-01T01:59:31Z,1378000771,2013,2,0,244.083,-999.0,71.1654,-136.7532,1003.3,1.12,-999.0,yes,yes,no,300234011244960,UPTEMPO,PSC-UPTEMPO,Healy,South
2013-09-01T03:00:00Z,1378004400,2013,3,0,244.125,-999.0,71.1654,-136.7532,1004.0,1.0,-999.0,yes,yes,no,300234011244960,UPTEMPO,PSC-UPTEMPO,Healy,South
2013-09-01T04:00:28Z,1378008029,2013,4,0,244.167,-999.0,71.1654,-136.7532,1004.9,0.72,-999.0,yes,yes,no,300234011244960,UPTEMPO,PSC-UPTEMPO,Healy,South
2013-09-01T04:59:31Z,1378011571,2013,5,0,244.208,-999.0,71.1654,-136.7532,1005.4,0.52,-999.0,yes,yes,no,300234011244960,UPTEMPO,PSC-UPTEMPO,Healy,South
2013-09-01T06:00:00Z,1378015200,2013,6,0,244.25,-999.0,71.1654,-136.7532,1005.8,0.44,-999.0,yes,yes,no,300234011244960,UPTEMPO,PSC-UPTEMPO,Healy,South
2013-09-01T07:00:28Z,1378018829,2013,7,0,244.292,-999.0,71.1654,-136.7532,1006.3,0.32,-999.0,yes,yes,no,300234011244960,UPTEMPO,PSC-UPTEMPO,Healy,South
2013-09-01T07:59:31Z,1378022371,2013,8,0,244.333,-999.0,71.1654,-136.7532,1006.9,0.28,-999.0,yes,yes,no,300234011244960,UPTEMPO,PSC-UPTEMPO,Healy,South
2013-09-01T09:00:00Z,1378026000,2013,9,0,244.375,-999.0,71.1654,-136.7532,1007.8,0.16,-999.0,yes,yes,no,300234011244960,UPTEMPO,PSC-UPTEMPO,Healy,South
2013-09-01T10:00:28Z,1378029629,2013,10,0,244.417,-999.0,71.1654,-136.7532,1008.3,0.02,-999.0,yes,yes,no,300234011244960,UPTEMPO,PSC-UPTEMPO,Healy,South
2013-09-01T10:59:31Z,1378033171,2013,11,0,244.458,-999.0,71.1654,-136.7532,1008.9,-0.08,-999.0,yes,yes,no,300234011244960,UPTEMPO,PSC-UPTEMPO,Healy,South
2013-09-01T12:00:00Z,1378036800,2013,12,0,244.5,-999.0,71.1654,-136.7532,1009.5,-0.16,-999.0,yes,yes,no,300234011244960,UPTEMPO,PSC-UPTEMPO,Healy,South
2013-09-01T13:00:28Z,1378040429,2013,13,0,244.542,-999.0,71.1654,-136.7532,1010.2,-0.24,-999.0,yes,yes,no,300234011244960,UPTEMPO,PSC-UPTEMPO,Healy,South
2013-09-01T13:59:31Z,1378043971,2013,14,0,244.583,-999.0,71.1654,-136.7532,1010.7,-0.44,-999.0,yes,yes,no,300234011244960,UPTEMPO,PSC-UPTEMPO,Healy,South
2013-09-01T15:00:00Z,1378047600,2013,15,0,244.625,-999.0,71.1654,-136.7532,1011.1,-0.44,-999.0,yes,yes,no,300234011244960,UPTEMPO,PSC-UPTEMPO,Healy,South
2013-09-01T16:00:28Z,1378051229,2013,16,0,244.667,-999.0,71.1654,-136.7532,1011.5,-0.44,-999.0,yes,yes,no,300234011244960,UPTEMPO,PSC-UPTEMPO,Healy,South
2013-09-01T16:59:31Z,1378054771,2013,17,0,244.708,-999.0,71.1654,-136.7532,1011.5,-0.28,-999.0,yes,yes,no,300234011244960,UPTEMPO,PSC-UPTEMPO,Healy,South
2013-09-01T18:00:00Z,1378058400,2013,18,0,244.75,-999.0,71.1654,-136.7532,1012.1,-0.24,-999.0,yes,yes,no,300234011244960,UPTEMPO,PSC-UPTEMPO,Healy,South
2013-09-01T19:00:28Z,1378062029,2013,19,0,244.792,-999.0,71.1654,-136.7532,1012.6,-0.32,-999.0,yes,yes,no,300234011244960,UPTEMPO,PSC-UPTEMPO,Healy,South
2013-09-01T19:59:31Z,1378065571,2013,20,0,244.833,-999.0,71.1654,-136.7532,1013.2,-0.48,-999.0,yes,yes,no,300234011244960,UPTEMPO,PSC-UPTEMPO,Healy,South
2013-09-01T21:00:00Z,1378069200,2013,21,0,244.875,-999.0,71.1654,-136.7532,1013.7,-0.64,-999.0,yes,yes,no,300234011244960,UPTEMPO,PSC-UPTEMPO,Healy,South
2013-09-01T22:00:28Z,1378072829,2013,22,0,244.917,-999.0,71.1654,-136.7532,1014.2,-0.76,-999.0,yes,yes,no,300234011244960,UPTEMPO,PSC-UPTEMPO,Healy,South
2013-09-01T22:59:31Z,1378076371,2013,23,0,244.958,-999.0,71.1654,-136.7532,1014.6,-0.8,-999.0,yes,yes,no,300234011244960,UPTEMPO,PSC-UPTEMPO,Healy,South
2013-09-02T00:00:00Z,1378080000,2013,0,0,245.0,-999.0,71.1654,-136.7532,1014.9,-0.76,-999.0,yes,yes,no,300234011244960,UPTEMPO,PSC-UPTEMPO,Healy,South
2013-09-02T01:00:28Z,1378083629,2013,1,0,245.042,-999.0,71.1654,-136.7532,1015.1,-0.84,-999.0,yes,yes,no,300234011244960,UPTEMPO,PSC-UPTEMPO,Healy,South
2013-09-02T01:59:31Z,1378087171,2013,2,0,245.083,-999.0,71.1654,-136.7532,1015.2,-0.8,-999.0,yes,yes,no,300234011244960,UPTEMPO,PSC-UPTEMPO,Healy,South
2013-09-02T03:00:00Z,1378090800,2013,3,0,245.125,-999.0,71.1654,-136.7532,1015.2,-0.84,-999.0,yes,yes,no,300234011244960,UPTEMPO,PSC-UPTEMPO,Healy,South
2013-09-02T04:00:28Z,1378094429,2013,4,0,245.167,-999.0,71.1654,-136.7532,1015.2,-0.84,-999.0,yes,yes,no,300234011244960,UPTEMPO,PSC-UPTEMPO,Healy,South
2013-09-02T04:59:31Z,1378097971,2013,5,0,245.208,-999.0,71.1654,-136.7532,1015.1,-0.92,-999.0,yes,yes,no,300234011244960,UPTEMPO,PSC-UPTEMPO,Healy,South
2013-09-02T06:00:00Z,1378101600,2013,6,0,245.25,-999.0,70.9728,-136.2928,1014.9,-0.84,-999.0,yes,yes,no,300234011244960,UPTEMPO,PSC-UPTEMPO,Healy,South
2013-09-02T07:00:28Z,1378105229,2013,7,0,245.292,-999.0,70.9728,-136.2928,1015.1,-0.84,-999.0,yes,yes,no,300234011244960,UPTEMPO,PSC-UPTEMPO,Healy,South
2013-09-02T07:59:31Z,1378108771,2013,8,0,245.333,-999.0,70.9728,-136.2928,1015.0,-0.76,-999.0,yes,yes,no,300234011244960,UPTEMPO,PSC-UPTEMPO,Healy,South
2013-09-02T09:00:00Z,1378112400,2013,9,0,245.375,-999.0,70.9728,-136.2928,1015.2,-0.18,-999.0,yes,yes,no,300234011244960,UPTEMPO,PSC-UPTEMPO,Healy,South
2013-09-02T10:00:28Z,1378116029,2013,10,0,245.417,-999.0,70.9728,-136.2928,1015.2,-0.68,-999.0,yes,yes,no,300234011244960,UPTEMPO,PSC-UPTEMPO,Healy,South
2013-09-02T10:59:31Z,1378119571,2013,11,0,245.458,-999.0,70.9728,-136.2928,1014.9,-0.84,-999.0,yes,yes,no,300234011244960,UPTEMPO,PSC-UPTEMPO,Healy,South
2013-09-02T12:00:00Z,1378123200,2013,12,0,245.5,-999.0,70.9728,-136.2928,1014.7,-0.92,-999.0,yes,yes,no,300234011244960,UPTEMPO,PSC-UPTEMPO,Healy,South
2013-09-02T13:00:28Z,1378126829,2013,13,0,245.542,-999.0,70.9728,-136.2928,1014.5,-0.94,-999.0,yes,yes,no,300234011244960,UPTEMPO,PSC-UPTEMPO,Healy,South
2013-09-02T13:59:31Z,1378130371,2013,14,0,245.583,-999.0,70.9728,-136.2928,1014.1,-0.94,-999.0,yes,yes,no,300234011244960,UPTEMPO,PSC-UPTEMPO,Healy,South
2013-09-02T15:00:00Z,1378134000,2013,15,0,245.625,-999.0,70.9728,-136.2928,1014.0,-0.96,-999.0,yes,yes,no,300234011244960,UPTEMPO,PSC-UPTEMPO,Healy,South
2013-09-02T16:00:28Z,1378137629,2013,16,0,245.667,-999.0,70.9728,-136.2928,1013.9,-0.96,-999.0,yes,yes,no,300234011244960,UPTEMPO,PSC-UPTEMPO,Healy,South
2013-09-02T16:59:31Z,1378141171,2013,17,0,245.708,-999.0,70.9728,-136.2928,1013.9,-1.0,-999.0,yes,yes,no,300234011244960,UPTEMPO,PSC-UPTEMPO,Healy,South
2013-09-02T18:00:00Z,1378144800,2013,18,0,245.75,-999.0,70.9728,-136.2928,1013.8,-1.0,-999.0,yes,yes,no,300234011244960,UPTEMPO,PSC-UPTEMPO,Healy,South
2013-09-02T19:00:28Z,1378148429,2013,19,0,245.792,-999.0,70.9728,-136.2928,1013.9,-1.0,-999.0,yes,yes,no,300234011244960,UPTEMPO,PSC-UPTEMPO,Healy,South
2013-09-02T19:59:31Z,1378151971,2013,20,0,245.833,-999.0,70.9728,-136.2928,1013.7,-0.96,-999.0,yes,yes,no,300234011244960,UPTEMPO,PSC-UPTEMPO,Healy,South
2013-09-02T21:00:00Z,1378155600,2013,21,0,245.875,-999.0,70.9728,-136.2928,1013.8,-0.96,-999.0,yes,yes,no,300234011244960,UPTEMPO,PSC-UPTEMPO,Healy,South
2013-09-02T22:00:28Z,1378159229,2013,22,0,245.917,-999.0,70.9728,-136.2928,1013.8,-0.92,-999.0,yes,yes,no,300234011244960,UPTEMPO,PSC-UPTEMPO,Healy,South
2013-09-02T22:59:31Z,1378162771,2013,23,0,245.958,-999.0,70.9728,-136.2928,1013.9,-0.92,-999.0,yes,yes,no,300234011244960,UPTEMPO,PSC-UPTEMPO,Healy,South
2013-09-03T00:00:00Z,1378166400,2013,0,0,246.0,-999.0,70.9728,-136.2928,1013.9,-0.88,-999.0,yes,yes,no,300234011244960,UPTEMPO,PSC-UPTEMPO,Healy,South
2013-09-03T01:00:28Z,1378170029,2013,1,0,246.042,-999.0,70.9728,-136.2928,1013.8,-0.92,-999.0,yes,yes,no,300234011244960,UPTEMPO,PSC-UPTEMPO,Healy,South
2013-09-03T01:59:31Z,1378173571,2013,2,0,246.083,-999.0,70.9728,-136.2928,1013.8,-0.92,-999.0,yes,yes,no,300234011244960,UPTEMPO,PSC-UPTEMPO,Healy,South
2013-09-03T03:00:00Z,1378177200,2013,3,0,246.125,-999.0,70.9728,-136.2928,1013.5,-0.84,-999.0,yes,yes,no,300234011244960,UPTEMPO,PSC-UPTEMPO,Healy,South
2013-09-03T04:00:28Z,1378180829,2013,4,0,246.167,-999.0,70.9728,-136.2928,1013.8,-0.84,-999.0,yes,yes,no,300234011244960,UPTEMPO,PSC-UPTEMPO,Healy,South
2013-09-03T04:59:31Z,1378184371,2013,5,0,246.208,-999.0,70.9728,-136.2928,1014.0,-0.92,-999.0,yes,yes,no,300234011244960,UPTEMPO,PSC-UPTEMPO,Healy,South
2013-09-03T06:00:00Z,1378188000,2013,6,0,246.25,-999.0,70.9728,-136.2928,1013.8,-0.84,-999.0,yes,yes,no,300234011244960,UPTEMPO,PSC-UPTEMPO,Healy,South
2013-09-03T07:00:28Z,1378191629,2013,7,0,246.292,-999.0,70.9728,-136.2928,1013.6,-0.84,-999.0,yes,yes,no,300234011244960,UPTEMPO,PSC-UPTEMPO,Healy,South
2013-09-03T07:59:31Z,1378195171,2013,8,0,246.333,-999.0,70.9728,-136.2928,1013.9,-0.84,-999.0,yes,yes,no,300234011244960,UPTEMPO,PSC-UPTEMPO,Healy,South
2013-09-03T09:00:00Z,1378198800,2013,9,0,246.375,-999.0,70.9728,-136.2928,1013.8,-0.84,-999.0,yes,yes,no,300234011244960,UPTEMPO,PSC-UPTEMPO,Healy,South
2013-09-03T10:00:28Z,1378202429,2013,10,0,246.417,-999.0,70.9728,-136.2928,1013.3,-0.92,-999.0,yes,yes,no,300234011244960,UPTEMPO,PSC-UPTEMPO,Healy,South
2013-09-03T10:59:31Z,1378205971,2013,11,0,246.458,-999.0,70.9728,-136.2928,1012.8,-0.88,-999.0,yes,yes,no,300234011244960,UPTEMPO,PSC-UPTEMPO,Healy,South
2013-09-03T12:00:00Z,1378209600,2013,12,0,246.5,-999.0,70.9728,-136.2928,1012.9,-0.92,-999.0,yes,yes,no,300234011244960,UPTEMPO,PSC-UPTEMPO,Healy,South
2013-09-03T13:00:28Z,1378213229,2013,13,0,246.542,-999.0,70.9728,-136.2928,1013.8,-0.92,-999.0,yes,yes,no,300234011244960,UPTEMPO,PSC-UPTEMPO,Healy,South
2013-09-03T13:59:31Z,1378216771,2013,14,0,246.583,-999.0,70.9728,-136.2928,1010.6,-0.84,-999.0,yes,yes,no,300234011244960,UPTEMPO,PSC-UPTEMPO,Healy,South
2013-09-03T15:00:00Z,1378220400,2013,15,0,246.625,-999.0,70.9728,-136.2928,1010.4,-0.84,-999.0,yes,yes,no,300234011244960,UPTEMPO,PSC-UPTEMPO,Healy,South
2013-09-03T16:00:28Z,1378224029,2013,16,0,246.667,-999.0,70.9728,-136.2928,1010.5,-0.84,-999.0,yes,yes,no,300234011244960,UPTEMPO,PSC-UPTEMPO,Healy,South
